sat.trackr.live / text

‹ back to catalog

STARLINK-2346

NORAD 47887 · 2021-021AD

PAYLOAD ACTIVE UNKNOWN

§ Identity

Operator
Country
US
Launch date
2021-03-14
Launch site
AFETR
Launch vehicle
Mass (kg)
RCS (m²)

Purposes: comms

External: N2YO · Heavens-Above · Gunter

§ Orbital elements

Epoch: 2026-05-24T16:27:56.555136Z

Period
94.01 min
Inclination
53.1579°
Eccentricity
0.0001094
Mean motion
15.31719137 rev/d
Perigee alt
469.9 km
Apogee alt
471.4 km
Semi-major
6,848.8 km
B*
3.0021e-4
RAAN
287.5208°
Arg perigee
88.1267°
Mean anomaly
271.9859°
Rev number
28,770

§ Raw data

STARLINK-23461 47887U 21021AD  26144.68607124  .00008968  00000+0  30021-3 0  99902 47887  53.1579 287.5208 0001094  88.1267 271.9859 15.31719137287707

JSON: /api/v1/satellites/47887 · /tle

For live sub-satellite position, see the globe view (requires WebGL).

§ Visibility from observer

Set your observer location to see the next 7 days of passes ≥ 10°. The values pass through the URL so the page stays shareable.

No JS? Fill the form by hand. The geolocation button needs JavaScript.